Flag for China Weather past 2 weeks in Lanchow, Gansu, China

Now
55 °F

Passing clouds.


Feels Like: 55 °F
Forecast: 47 / 63 °F
Wind: 3 mph from Northeast

Location: Lanzhou / Zhongchuan

Current Time: Apr 1, 2015 at 6:32:36 AM

Latest Report: Apr 1, 2015 at 5:00 AM


Visibility: N/A

Pressure: 29.50 "Hg

Humidity: 77%

Dew point: 48 °F

Location of LanchowLocation

Historic Weather in Lanchow — Graph

°F

Lanchow temperature yesterday

Maximum temperature yesterday: 66 °F (at 2:00 PM)
Minimum temperature yesterday: 48 °F (at 12:00 AM)
Average temperature yesterday: 57 °F

Past Weeks' High & Low Weather Summary

 TemperatureHumidityPressure
High75 °F (Mar 29, 4:00 PM)87% (Mar 24, 6:00 AM)30.42 "Hg (Mar 24, 6:00 AM)
Low25 °F (Mar 21, 7:00 AM)12% (Mar 29, 3:00 PM)29.50 "Hg (Apr 1, 5:00 AM)
Average45 °F41%30.08 "Hg
* Reported Mar 17 5:00 AM — Apr 1 5:00 AM, Lanchow, Weather by CustomWeather, © 2015

Note: Actual official high and low records may vary slightly from our data, if they occured in-between our weather recording intervals... More about our weather records

Advertising

Lanchow weather history for previous 24 hours

 ConditionsComfort  
Time TempWeatherWind HumidityBarometerVisibility
5:00 AM
Wed, Apr 1
55 °FPassing clouds.3 mph77%29.50 "HgN/A
4:00 AM55 °FPassing clouds.6 mph77%29.53 "HgN/A
3:00 AM55 °FPassing clouds.8 mph77%29.53 "HgN/A
2:00 AM55 °FClear.10 mph77%29.56 "Hg10 mi
1:00 AM57 °FClear.10 mph72%29.59 "Hg10 mi
12:00 AM57 °FPassing clouds.10 mph67%29.59 "HgN/A
11:00 PM
Tue, Mar 31
59 °FClear.8 mph63%29.65 "Hg10 mi
10:00 PM59 °FClear.10 mph59%29.65 "Hg10 mi
9:00 PM59 °FClear.13 mph59%29.65 "Hg10 mi
8:00 PM59 °FSunny.15 mph59%29.65 "Hg10 mi
7:00 PM61 °FSunny.13 mph55%29.62 "Hg10 mi
6:00 PM63 °FScattered clouds.10 mph49%29.65 "HgN/A
5:00 PM64 °FScattered clouds.13 mph46%29.62 "HgN/A
4:00 PM64 °FPassing clouds.13 mph46%29.65 "HgN/A
3:00 PM64 °FPassing clouds.8 mph46%29.68 "HgN/A
2:00 PM66 °FScattered clouds.8 mph46%29.71 "HgN/A
1:00 PM63 °FScattered clouds.8 mph49%29.74 "HgN/A
12:00 PM63 °FPassing clouds.6 mph49%29.80 "HgN/A
11:00 AM59 °FClear.8 mph55%29.80 "Hg4 mi
10:00 AM57 °FClear.3 mph51%29.83 "Hg4 mi
9:00 AM55 °FClear.3 mph44%29.83 "Hg4 mi
8:00 AM54 °FScattered clouds.1 mph38%29.80 "Hg4 mi
7:00 AM52 °FClear.No wind41%29.77 "Hg10 mi
6:00 AM50 °FClear.3 mph47%29.77 "Hg10 mi
Weather by CustomWeather, © 2015

See weather overviewHow to use our weather pages